Calgary Springbank, Alberta

5:23 AM MDT on July 29, 2016 (GMT -0600)
Springbank

Weather History for CYBW - September, 2014

Change the Weather History Date:

Thursday, September 11, 2014

  Actual Average Record
Temperature  
Mean Temperature 26 °F -  
Max Temperature 39 °F 55 °F 78 °F (2015)
Min Temperature 14 °F 32 °F 14 °F (2014)
Degree Days  
Heating Degree Days 38    
Moisture  
Dew Point 21 °F    
Average Humidity 95    
Maximum Humidity 100    
Minimum Humidity 65    
Precipitation  
Precipitation 0.00 in - - ()
Sea Level Pressure  
Sea Level Pressure 30.64 in    
Wind  
Wind Speed 6 mph ()    
Max Wind Speed 14 mph    
Max Gust Speed -    
Visibility 3.0 miles    
Events Fog    
Averages and records for this station are not official NWS values.
T = Trace of Precipitation, MM = Missing Value Source: Averaged Metar Reports

Daily Weather History Graph

Daily Weather History Graph

Search for Another Location

Airport or City:

Trip Planner

Search our weather history database for the weather conditions in past years. The results will help you decide how hot, cold, wet, or windy it might be!

Date:

Astronomy

Sep. 11, 2014 Rise Set
Actual Time 7:06 AM MDT 8:00 PM MDT
Civil Twilight 6:32 AM MDT 8:33 PM MDT
Nautical Twilight 5:52 AM MDT 9:14 PM MDT
Astronomical Twilight 5:09 AM MDT 9:57 PM MDT
Moon 9:15 PM MDT (9/11) 10:31 AM MDT (9/11)
Length of Visible Light 14h 01m
Length of Day
12h 53m
Waning Gibbous, 90% of the Moon is Illuminated
Sep 11
Waning Gibbous
Sep 15
Last Quarter
Sep 24
New
Oct 1
First Quarter
Oct 8
Full

Hourly Weather History & Observations

Time (MDT) Temp. Windchill Dew Point Humidity Pressure Visibility Wind Dir Wind Speed Gust Speed Precip Events Conditions
12:00 AM 28.4 °F 22.2 °F 28.4 °F 100% 30.71 in 9.0 mi South 5.8 mph - N/A   Overcast
1:00 AM 30.2 °F 25.4 °F 30.2 °F 100% 30.70 in 9.0 mi South 4.6 mph - N/A   Overcast
1:53 AM 26.6 °F 19.1 °F 26.6 °F 100% 30.69 in 4.0 mi SSE 6.9 mph - N/A   Mostly Cloudy
1:55 AM 26.6 °F 19.1 °F 26.6 °F 100% 30.70 in 2.2 mi SSE 6.9 mph - N/A   Mostly Cloudy
2:00 AM 26.6 °F 18.2 °F 26.6 °F 100% 30.69 in 1.2 mi SSE 8.1 mph - N/A   Mostly Cloudy
2:06 AM 26.6 °F 18.2 °F 26.6 °F 100% 30.69 in 0.8 mi South 8.1 mph - N/A   Scattered Clouds
2:10 AM 26.6 °F 18.2 °F 26.6 °F 100% 30.69 in 0.5 mi South 8.1 mph - N/A Fog Light Freezing Fog
2:17 AM 24.8 °F 16.1 °F 24.8 °F 100% 30.69 in 0.6 mi South 8.1 mph - N/A   Partly Cloudy
2:23 AM 24.8 °F 16.1 °F 24.8 °F 100% 30.69 in 0.5 mi South 8.1 mph - N/A Fog Light Freezing Fog
2:27 AM 24.8 °F 16.1 °F 24.8 °F 100% 30.69 in 0.4 mi South 8.1 mph - N/A Fog Light Freezing Fog
2:32 AM 23.0 °F 13.1 °F 23.0 °F 100% 30.69 in 0.2 mi South 9.2 mph - N/A Fog Light Freezing Fog
2:45 AM 23.0 °F 12.4 °F 23.0 °F 100% 30.69 in 0.5 mi South 10.4 mph - N/A Fog Light Freezing Fog
2:46 AM 23.0 °F 12.4 °F 23.0 °F 100% 30.69 in 0.6 mi South 10.4 mph - N/A   Partly Cloudy
2:48 AM 23.0 °F 12.4 °F 23.0 °F 100% 30.69 in 1.0 mi South 10.4 mph - N/A   Partly Cloudy
2:52 AM 23.0 °F 12.4 °F 23.0 °F 100% 30.69 in 3.0 mi South 10.4 mph - N/A   Partly Cloudy
2:55 AM 24.8 °F 15.3 °F 24.8 °F 100% 30.69 in 7.0 mi South 9.2 mph - N/A   Partly Cloudy
3:00 AM 24.8 °F 14.6 °F 24.8 °F 100% 30.69 in 8.0 mi South 10.4 mph - N/A   Partly Cloudy
3:05 AM 23.0 °F 12.4 °F 21.2 °F 93% 30.69 in 7.0 mi South 10.4 mph - N/A   Clear
4:00 AM 24.8 °F 16.1 °F 24.8 °F 100% 30.67 in 9.0 mi SSE 8.1 mph - N/A   Clear
4:13 AM 24.8 °F 16.1 °F 24.8 °F 100% 30.66 in 5.0 mi SSE 8.1 mph - N/A   Clear
4:15 AM 24.8 °F 16.1 °F 24.8 °F 100% 30.66 in 2.5 mi SSE 8.1 mph - N/A   Clear
4:27 AM 24.8 °F 16.1 °F 23.0 °F 93% 30.66 in 3.0 mi SSE 8.1 mph - N/A   Clear
4:30 AM 24.8 °F 16.1 °F 24.8 °F 100% 30.66 in 6.0 mi SSE 8.1 mph - N/A   Clear
4:32 AM 24.8 °F 16.1 °F 24.8 °F 100% 30.66 in 5.0 mi SSE 8.1 mph - N/A   Clear
4:45 AM 24.8 °F 16.9 °F 24.8 °F 100% 30.66 in 7.0 mi SSE 6.9 mph - N/A   Clear
4:47 AM 23.0 °F 14.7 °F 23.0 °F 100% 30.66 in 4.0 mi SSE 6.9 mph - N/A   Clear
4:58 AM 23.0 °F 15.8 °F 23.0 °F 100% 30.66 in 6.0 mi SSE 5.8 mph - N/A   Clear
5:02 AM 21.2 °F 12.6 °F 21.2 °F 100% 30.66 in 5.0 mi SSE 6.9 mph - N/A   Clear
5:06 AM 21.2 °F 12.6 °F 21.2 °F 100% 30.66 in 2.0 mi SSE 6.9 mph - N/A   Clear
5:09 AM 19.4 °F 11.5 °F 19.4 °F 100% 30.67 in 0.8 mi South 5.8 mph - N/A   Clear
5:10 AM 19.4 °F 11.5 °F 17.6 °F 93% 30.67 in 0.6 mi South 5.8 mph - N/A   Partly Cloudy
5:11 AM 17.6 °F 9.3 °F 17.6 °F 100% 30.67 in 0.5 mi South 5.8 mph - N/A Fog Light Freezing Fog
5:12 AM 17.6 °F 9.3 °F 15.8 °F 93% 30.68 in 0.4 mi South 5.8 mph - N/A Fog Light Freezing Fog
5:18 AM 15.8 °F 7.2 °F 14.0 °F 93% 30.68 in 0.2 mi South 5.8 mph - N/A Fog Light Freezing Fog
5:32 AM 15.8 °F - 15.8 °F 100% 30.68 in 0.2 mi Variable 2.3 mph - N/A Fog Light Freezing Fog
5:33 AM 15.8 °F - 15.8 °F 100% 30.68 in 0.2 mi Variable 2.3 mph - N/A Fog Light Freezing Fog
6:00 AM 17.6 °F 8.2 °F 15.8 °F 93% 30.68 in 0.1 mi NW 6.9 mph - N/A Fog Light Freezing Fog
6:16 AM 15.8 °F 6.1 °F 14.0 °F 93% 30.68 in 0.1 mi NW 6.9 mph - N/A Fog Light Freezing Fog
7:00 AM 15.8 °F 7.2 °F 15.8 °F 100% 30.68 in 0.0 mi WNW 5.8 mph - N/A Fog Light Freezing Fog
7:12 AM 15.8 °F 8.6 °F 15.8 °F 100% 30.67 in 0.0 mi NW 4.6 mph - N/A Fog Light Freezing Fog
7:24 AM 15.8 °F 10.2 °F 14.0 °F 93% 30.67 in 0.0 mi WNW 3.5 mph - N/A Fog Light Freezing Fog
7:28 AM 15.8 °F 8.6 °F 14.0 °F 93% 30.67 in 0.0 mi NW 4.6 mph - N/A Fog Light Freezing Fog
7:31 AM 15.8 °F 10.2 °F 14.0 °F 93% 30.67 in 0.0 mi NW 3.5 mph - N/A Fog Light Freezing Fog
7:32 AM 15.8 °F 10.2 °F 14.0 °F 93% 30.67 in 0.0 mi WNW 3.5 mph - N/A Fog Light Freezing Fog
7:37 AM 15.8 °F 8.6 °F 14.0 °F 93% 30.67 in 0.0 mi WNW 4.6 mph - N/A Fog Light Freezing Fog
7:44 AM 14.0 °F 8.2 °F 14.0 °F 100% 30.67 in 0.0 mi WNW 3.5 mph - N/A Fog Light Freezing Fog
8:00 AM 15.8 °F - 14.0 °F 93% 30.67 in 0.1 mi Calm Calm - N/A Fog Light Freezing Fog
8:13 AM 14.0 °F - 14.0 °F 100% 30.67 in 0.1 mi Variable 2.3 mph - N/A Fog Light Freezing Fog
8:50 AM 15.8 °F 10.2 °F 14.0 °F 93% 30.67 in 0.4 mi NNW 3.5 mph - N/A Fog Light Freezing Fog
8:55 AM 15.8 °F 10.2 °F 14.0 °F 93% 30.66 in 0.4 mi NNW 3.5 mph - N/A Fog Light Freezing Fog
9:00 AM 15.8 °F 10.2 °F 14.0 °F 93% 30.67 in 0.2 mi NNW 3.5 mph - N/A Fog Light Freezing Fog
9:46 AM 19.4 °F - 19.4 °F 100% 30.65 in 0.5 mi NNE 2.3 mph - N/A Fog Light Freezing Fog
9:47 AM 19.4 °F - 17.6 °F 93% 30.65 in 0.6 mi Variable 2.3 mph - N/A   Mostly Cloudy
9:49 AM 19.4 °F - 17.6 °F 93% 30.65 in 1.2 mi Variable 2.3 mph - N/A   Mostly Cloudy
9:50 AM 19.4 °F 14.3 °F 17.6 °F 93% 30.65 in 1.5 mi North 3.5 mph - N/A   Scattered Clouds
9:55 AM 15.8 °F - 14.0 °F 93% 30.66 in 0.8 mi North 2.3 mph - N/A   Scattered Clouds
9:59 AM 15.8 °F - 14.0 °F 93% 30.66 in 0.6 mi NNW 2.3 mph - N/A   Mostly Cloudy
10:00 AM 15.8 °F - 14.0 °F 93% 30.66 in 0.5 mi North 2.3 mph - N/A Fog Light Freezing Fog
10:12 AM 15.8 °F - 15.8 °F 100% 30.66 in 0.4 mi Calm Calm - N/A Fog Light Freezing Fog
10:14 AM 15.8 °F - 15.8 °F 100% 30.66 in 0.4 mi Calm Calm - N/A Fog Light Freezing Fog
10:19 AM 17.6 °F - 17.6 °F 100% 30.66 in 0.4 mi Calm Calm - N/A Fog Light Freezing Fog
10:20 AM 17.6 °F - 15.8 °F 93% 30.66 in 0.5 mi Calm Calm - N/A Fog Light Freezing Fog
10:22 AM 17.6 °F - 17.6 °F 100% 30.65 in 0.6 mi Calm Calm - N/A   Mostly Cloudy
10:25 AM 17.6 °F - 17.6 °F 100% 30.65 in 1.0 mi Calm Calm - N/A   Mostly Cloudy
10:29 AM 17.6 °F - 17.6 °F 100% 30.65 in 3.0 mi Calm Calm - N/A   Scattered Clouds
10:32 AM 19.4 °F - 17.6 °F 93% 30.65 in 7.0 mi Calm Calm - N/A   Scattered Clouds
11:00 AM 23.0 °F - 23.0 °F 100% 30.63 in 9.0 mi Calm Calm - N/A   Clear
12:00 PM 24.8 °F - 24.8 °F 100% 30.61 in 9.0 mi Calm Calm - N/A   Clear
1:00 PM 28.4 °F - 26.6 °F 93% 30.59 in 9.0 mi Calm Calm - N/A   Clear
2:00 PM 32.0 °F - 28.4 °F 87% 30.57 in 9.0 mi Variable 2.3 mph - N/A   Clear
3:00 PM 37.4 °F 30.8 °F 28.4 °F 70% 30.54 in 9.0 mi SSE 9.2 mph - N/A   Clear
4:00 PM 39.2 °F 32.5 °F 28.4 °F 65% 30.51 in 9.0 mi SSE 10.4 mph - N/A   Clear
6:00 PM 37.4 °F 30.3 °F 30.2 °F 75% 30.49 in 9.0 mi South 10.4 mph - N/A   Clear
7:00 PM 37.4 °F 29.8 °F 30.2 °F 75% 30.47 in 9.0 mi South 11.5 mph - N/A   Clear
8:00 PM 35.6 °F 26.6 °F 26.6 °F 70% 30.45 in 9.0 mi SSE 13.8 mph - N/A   Clear
9:00 PM 33.8 °F 29.6 °F 26.6 °F 75% 30.46 in 9.0 mi Variable 4.6 mph - N/A   Clear
10:00 PM 32.0 °F - 26.6 °F 80% 30.45 in 9.0 mi Calm Calm - N/A   Clear
11:00 PM 28.4 °F 24.6 °F 24.8 °F 86% 30.42 in 9.0 mi SSW 3.5 mph - N/A   Scattered Clouds
11:40 PM 26.6 °F 21.2 °F 26.6 °F 100% 30.41 in 4.0 mi West 4.6 mph - N/A   Clear
11:41 PM 26.6 °F 22.6 °F 24.8 °F 93% 30.41 in 2.2 mi West 3.5 mph - N/A   Clear
11:44 PM 26.6 °F 21.2 °F 24.8 °F 93% 30.41 in 0.8 mi WNW 4.6 mph - N/A   Clear
11:47 PM 26.6 °F 21.2 °F 24.8 °F 93% 30.41 in 0.5 mi WNW 4.6 mph - N/A Fog Light Freezing Fog